Weather History for Albuquerque, NM

Change the Weather History Date:

Wednesday, October 10, 2012

  Actual Average Record
Temperature  
Mean Temperature 64 °F 60 °F  
Max Temperature 77 °F 71 °F 86 °F (1979)
Min Temperature 51 °F 48 °F 31 °F (1982)
Degree Days  
Heating Degree Days 1 5  
Month to date heating degree days 18 41  
Since 1 July heating degree days 26 67  
Cooling Degree Days 0 0  
Month to date cooling degree days 21 7  
Year to date cooling degree days 1764 1319  
Growing Degree Days 14 (Base 50)    
Moisture  
Dew Point 30 °F    
Average Humidity 33    
Maximum Humidity 50    
Minimum Humidity 16    
Precipitation  
Precipitation 0.00 in 0.04 in 0.98 in (1985)
Month to date precipitation T 0.39  
Year to date precipitation 5.23 7.75  
Snow  
Snow 0.00 in - - ()
Month to date snowfall 0.0  
Since 1 July snowfall 0.0  
Since 1 September snowfall 0.0  
Snow Depth 0.00 in    
Sea Level Pressure  
Sea Level Pressure 29.97 in    
Wind  
Wind Speed 5 mph (NE)    
Max Wind Speed 21 mph    
Max Gust Speed 24 mph    
Visibility 10 miles    
Events      
T = Trace of Precipitation, MM = Missing Value Source: NWS Daily Summary

Daily Weather History Graph

Daily Weather History Graph

Search for Another Location

Airport:

Trip Planner

Search our weather history database for the weather conditions in past years. The results will help you decide how hot, cold, wet, or windy it might be!

Date:

Astronomy

Oct. 10, 2012 Rise Set
Actual Time 7:08 AM MDT 6:37 PM MDT
Civil Twilight 6:43 AM MDT 7:02 PM MDT
Nautical Twilight 6:13 AM MDT 7:31 PM MDT
Astronomical Twilight 5:44 AM MDT 8:01 PM MDT
Moon 1:59 AM MDT (10/10) 3:31 PM MDT (10/10)
Length of Visible Light 12h 19m
Length of Day
11h 28m
Waning Crescent, 26% of the Moon is Illuminated
Oct 10
Waning Crescent
Oct 15
New
Oct 21
First Quarter
Oct 29
Full
Nov 6
Last Quarter

Hourly Weather History & Observations

Time (MDT) Temp. Dew Point Humidity Pressure Visibility Wind Dir Wind Speed Gust Speed Precip Events Conditions
12:52 AM 61.0 °F 26.1 °F 26% 29.94 in 10.0 mi ESE 4.6 mph - N/A   Clear
1:52 AM 60.1 °F 26.1 °F 27% 29.95 in 10.0 mi SE 5.8 mph - N/A   Clear
2:52 AM 59.0 °F 28.9 °F 32% 29.96 in 10.0 mi East 17.3 mph 23.0 mph N/A   Partly Cloudy
3:52 AM 55.9 °F 25.0 °F 30% 29.96 in 10.0 mi North 8.1 mph - N/A   Partly Cloudy
4:52 AM 54.0 °F 28.0 °F 37% 29.98 in 10.0 mi North 8.1 mph - N/A   Clear
5:52 AM 52.0 °F 30.0 °F 43% 30.01 in 10.0 mi NNW 8.1 mph - N/A   Clear
6:52 AM 52.0 °F 32.0 °F 47% 30.04 in 10.0 mi North 6.9 mph - N/A   Clear
7:52 AM 51.1 °F 33.1 °F 50% 30.06 in 10.0 mi North 9.2 mph - N/A   Clear
8:52 AM 53.1 °F 34.0 °F 48% 30.08 in 10.0 mi North 10.4 mph - N/A   Clear
9:52 AM 57.0 °F 35.1 °F 44% 30.10 in 10.0 mi NNW 6.9 mph - N/A   Partly Cloudy
10:52 AM 62.1 °F 34.0 °F 35% 30.08 in 10.0 mi NW 5.8 mph - N/A   Partly Cloudy
11:52 AM 66.0 °F 32.0 °F 28% 30.05 in 10.0 mi WNW 3.5 mph - N/A   Partly Cloudy
12:52 PM 69.1 °F 30.9 °F 24% 30.01 in 10.0 mi Calm Calm - N/A   Partly Cloudy
1:52 PM 72.0 °F 28.9 °F 20% 29.97 in 10.0 mi Calm Calm - N/A   Partly Cloudy
2:52 PM 73.9 °F 30.9 °F 21% 29.92 in 10.0 mi Calm Calm - N/A   Partly Cloudy
3:52 PM 75.9 °F 30.0 °F 19% 29.91 in 10.0 mi SSW 6.9 mph - N/A   Partly Cloudy
4:52 PM 77.0 °F 28.0 °F 17% 29.89 in 10.0 mi South 4.6 mph - N/A   Partly Cloudy
5:52 PM 75.9 °F 28.0 °F 17% 29.89 in 10.0 mi South 5.8 mph - N/A   Partly Cloudy
6:52 PM 73.9 °F 30.0 °F 20% 29.90 in 10.0 mi Calm Calm - N/A   Partly Cloudy
7:52 PM 73.0 °F 30.9 °F 21% 29.91 in 10.0 mi Calm Calm - N/A   Partly Cloudy
8:52 PM 64.9 °F 27.0 °F 24% 29.94 in 10.0 mi ESE 6.9 mph - N/A   Partly Cloudy
9:52 PM 66.9 °F 27.0 °F 22% 29.94 in 10.0 mi South 3.5 mph - N/A   Clear
10:52 PM 61.0 °F 27.0 °F 27% 29.94 in 10.0 mi ESE 5.8 mph - N/A   Clear
11:52 PM 63.0 °F 27.0 °F 26% 29.93 in 10.0 mi ESE 4.6 mph - N/A   Clear